Погода в Большой Коренихе

Украина / Николаевская область     46°56′42″N   31°54′04″E
темп.,
°C
ветер,
м/с
пор.,
м/с
влажн.,
%
обл.,
%
осадки,
мм/ч
давл.,
гПа
погр.,
м
15 августа, пн
пн1500:00+22св467392 1.8 1005152
03:00+22св355729 2.7 100488
06:00+21св225360 0.2 100440
09:00+26всв464054 0.2 1004358
12:00+32юв3527100 0.0 10041382
15:00+32ююз7539100 0.1 10041666
18:00+28юз6752100 0.2 1005616
21:00+26сз0255100 0.3 1005208
16 августа, вт
вт1600:00+23ююз4778100 0.0 1007278
03:00+23ююв2384100 0.1 1007115
06:00+22вюв3685100 1.0 1007187
09:00+24юв677062 1.0 1008602
12:00+30ю554321 0.0 10081922
15:00+31ююз65390 0.0 10081865
18:00+29ю66430 0.0 10081068
21:00+24ююз46680 0.0 1009306
17 августа, ср
ср1700:00+23юз23767 0.0 1009101
03:00+22юв348160 0.0 1008102
06:00+22юв238210 0.0 100874
09:00+27ююв345650 0.1 1009724
12:00+31ю553962 0.0 10081838
15:00+32ю653712 0.0 10081895
18:00+29сз344459 0.3 10081263
21:00+23всв4674100 1.1 1009299
18 августа, чт
чт1800:00+22вюв2372100 0.2 1009111
03:00+23зсз227348 2.1 100879
06:00+22сз227855 0.0 100873
09:00+25з226334 0.0 1009665
12:00+29юз35436 0.0 10081722
15:00+31юз453754 0.0 10072306
18:00+29з444443 0.1 10081687
21:00+25зюз35565 0.1 1008186
19 августа, пт
пт1900:00+24юз23655 0.0 100890
03:00+23ююв11675 0.1 100838
06:00+22вюв22725 0.1 100842
09:00+26вюв22575 0.1 1008626
12:00+29всв224340 0.0 10081901
15:00+29ююз2243100 0.6 10081566
18:00+29зсз334353 0.1 1008753
21:00+26с23530 0.1 1008108